Saint Louis, MO

2:18 AM CST on February 09, 2016 (GMT -0600)
Lambert-Saint Louis International

Weather History for KSTL - March, 2014

Change the Weather History Date:

Tuesday, March 18, 2014

  Actual Average Record
Temperature  
Mean Temperature 48 °F 47 °F  
Max Temperature 60 °F 57 °F 82 °F (2012)
Min Temperature 35 °F 37 °F 6 °F (1923)
Degree Days  
Heating Degree Days 17 18  
Month to date heating degree days 434 383  
Since 1 July heating degree days 4471 3981  
Cooling Degree Days 0 0  
Month to date cooling degree days 0 0  
Year to date cooling degree days 0 0  
Moisture  
Dew Point 34 °F    
Average Humidity 63    
Maximum Humidity 82    
Minimum Humidity 43    
Precipitation  
Precipitation 0.01 in 0.12 in 2.46 in (2008)
Month to date precipitation 1.35 1.76  
Year to date precipitation 4.50 6.40  
Snow  
Snow 0.00 in 0.00 in 0.40 in (1988)
Month to date snowfall 1.5 1.7  
Since 1 July snowfall 28.7 16.7  
Snow Depth 0.00 in    
Sea Level Pressure  
Sea Level Pressure 29.74 in    
Wind  
Wind Speed 13 mph (SSE)    
Max Wind Speed 37 mph    
Max Gust Speed 43 mph    
Visibility 9 miles    
Events      
T = Trace of Precipitation, MM = Missing Value Source: NWS Daily Summary

Daily Weather History Graph

Daily Weather History Graph

Search for Another Location

Airport or City:

Trip Planner

Search our weather history database for the weather conditions in past years. The results will help you decide how hot, cold, wet, or windy it might be!

Date:

Astronomy

Mar. 18, 2014 Rise Set
Actual Time 7:08 AM CDT 7:11 PM CDT
Civil Twilight 6:41 AM CDT 7:38 PM CDT
Nautical Twilight 6:10 AM CDT 8:09 PM CDT
Astronomical Twilight 5:39 AM CDT 8:40 PM CDT
Moon 9:27 PM CDT (3/18) 7:58 AM CDT (3/18)
Length of Visible Light 12h 56m
Length of Day
12h 03m
Waning Gibbous, 96% of the Moon is Illuminated
Mar 18
Waning Gibbous
Mar 23
Last Quarter
Mar 30
New
Apr 7
First Quarter
Apr 15
Full

Hourly Weather History & Observations

Time (CDT) Temp. Windchill Dew Point Humidity Pressure Visibility Wind Dir Wind Speed Gust Speed Precip Events Conditions
12:51 AM 39.9 °F 33.9 °F 27.0 °F 60% 29.83 in 10.0 mi SSE 9.2 mph - N/A   Mostly Cloudy
1:51 AM 39.9 °F 33.9 °F 28.0 °F 63% 29.83 in 10.0 mi SSE 9.2 mph - N/A   Scattered Clouds
2:51 AM 39.0 °F 32.3 °F 28.9 °F 67% 29.82 in 10.0 mi SSE 10.4 mph - N/A   Scattered Clouds
3:51 AM 39.0 °F 31.8 °F 30.0 °F 70% 29.80 in 10.0 mi SSE 11.5 mph - N/A   Mostly Cloudy
4:51 AM 37.0 °F 32.4 °F 30.0 °F 76% 29.79 in 9.0 mi SSE 5.8 mph - N/A   Scattered Clouds
5:51 AM 36.0 °F 29.6 °F 30.0 °F 79% 29.79 in 8.0 mi ESE 8.1 mph - N/A   Mostly Cloudy
6:51 AM 37.0 °F 29.8 °F 30.9 °F 79% 29.79 in 7.0 mi SE 10.4 mph - N/A   Scattered Clouds
7:51 AM 37.0 °F 28.9 °F 30.9 °F 79% 29.80 in 5.0 mi SE 12.7 mph - N/A   Haze
8:51 AM 39.9 °F 32.1 °F 32.0 °F 73% 29.81 in 5.0 mi SSE 13.8 mph - N/A   Haze
9:51 AM 42.8 °F 34.8 °F 32.0 °F 66% 29.78 in 7.0 mi SE 17.3 mph - N/A   Mostly Cloudy
10:51 AM 48.2 °F - 33.8 °F 58% 29.78 in 9.0 mi SSE 17.3 mph - N/A   Scattered Clouds
11:54 AM 53.1 °F - 35.1 °F 50% 29.78 in 10.0 mi SSE 20.7 mph 25.3 mph N/A   Scattered Clouds
12:51 PM 55.9 °F - 35.1 °F 45% 29.75 in 10.0 mi SE 23.0 mph 29.9 mph N/A   Partly Cloudy
1:51 PM 57.9 °F - 36.0 °F 44% 29.71 in 10.0 mi SSE 18.4 mph 32.2 mph N/A   Partly Cloudy
2:51 PM 57.9 °F - 36.0 °F 44% 29.66 in 10.0 mi SSE 25.3 mph 39.1 mph N/A   Scattered Clouds
3:51 PM 57.9 °F - 36.0 °F 44% 29.62 in 10.0 mi South 25.3 mph 39.1 mph N/A   Partly Cloudy
4:51 PM 57.9 °F - 37.0 °F 46% 29.59 in 10.0 mi SSE 26.5 mph 33.4 mph N/A   Scattered Clouds
5:51 PM 57.0 °F - 37.0 °F 47% 29.63 in 10.0 mi SSE 23.0 mph 31.1 mph N/A   Scattered Clouds
6:51 PM 55.9 °F - 37.9 °F 51% 29.64 in 10.0 mi SSE 13.8 mph - N/A   Scattered Clouds
7:51 PM 55.0 °F - 37.0 °F 51% 29.66 in 10.0 mi South 13.8 mph - N/A   Partly Cloudy
8:51 PM 55.0 °F - 39.0 °F 55% 29.67 in 10.0 mi SSE 13.8 mph - N/A   Partly Cloudy
9:51 PM 53.1 °F - 39.9 °F 61% 29.67 in 10.0 mi SSE 12.7 mph - N/A   Partly Cloudy
10:51 PM 53.1 °F - 41.0 °F 64% 29.67 in 10.0 mi SSE 11.5 mph - N/A   Partly Cloudy
11:51 PM 53.1 °F - 41.0 °F 64% 29.65 in 10.0 mi South 12.7 mph - N/A   Mostly Cloudy